Wind_Speed
2 3 3 3 4 4 5 5 6 7 8 8 8 7 7 7 7 7 6 5 5 5 5 6 5 5 6 7 7 8 8 9 9 9 9 10 10 9 9 9 8 7 7
3 3 3 3 4 4 5 6 7 8 8 8 8 7 8 7 7 7 6 6 6 6 6 6 7 6 6 7 7 8 8 9 9 9 9 10 10 10 10 10 9 9 8
3 3 3 3 4 5 5 6 7 8 8 8 8 8 8 8 8 7 7 7 7 7 6 6 7 7 7 8 8 8 8 9 9 9 10 10 10 11 10 10 10 10 9
3 3 3 4 5 5 5 6 7 8 8 8 8 9 9 9 8 8 8 8 7 7 7 7 7 7 7 7 8 8 9 9 9 9 10 11 11 11 11 11 10 10 10
3 3 3 4 5 5 5 7 8 8 8 9 9 9 9 9 8 8 9 9 8 7 7 7 7 7 7 7 8 9 9 8 9 9 10 10 11 12 12 12 11 10 11
2 3 4 4 4 5 6 7 8 8 9 9 8 9 9 9 9 9 9 9 9 8 8 8 8 8 8 8 8 9 9 9 9 9 9 10 11 12 12 12 11 11 11
2 2 3 4 4 5 6 7 8 8 8 8 8 9 9 10 10 10 10 9 9 8 8 8 8 8 8 8 9 9 9 9 8 9 9 10 10 12 12 12 12 11 11
2 2 3 4 5 6 7 7 7 7 8 8 8 9 10 10 10 10 10 10 9 9 8 8 7 8 8 9 9 9 9 10 9 9 9 10 10 10 12 12 12 12 11
2 2 3 3 4 5 6 6 7 7 8 9 9 10 10 10 10 10 10 10 9 9 8 8 7 8 8 9 9 9 9 10 10 10 9 9 10 10 11 12 12 11 12
2 2 2 3 4 5 5 6 7 8 8 9 10 11 11 10 10 10 10 9 9 9 9 8 8 8 8 8 8 8 9 10 10 9 10 10 10 10 11 11 11 11 12
2 1 1 3 4 4 5 6 7 8 9 10 10 11 11 11 11 11 10 10 10 10 9 8 8 7 7 8 8 8 9 10 10 9 10 10 10 11 11 11 11 10 11
2 1 1 3 4 4 5 6 7 8 9 10 11 11 12 11 11 11 11 10 10 9 9 8 8 7 7 8 8 9 9 10 10 9 10 10 10 11 11 11 10 10 10
1 1 2 3 3 4 5 7 7 8 9 10 11 12 12 12 11 11 11 11 10 9 9 8 7 6 6 7 8 8 9 9 10 10 10 10 10 11 11 11 10 11 10
1 1 2 3 3 4 6 7 7 8 10 11 11 12 13 13 12 12 12 11 11 10 9 8 6 6 5 6 6 7 7 8 8 9 10 10 10 10 10 11 10 10 10
1 1 1 2 3 4 5 6 7 9 10 11 12 13 13 13 13 12 12 12 12 10 9 8 7 5 4 4 4 5 6 6 7 8 8 9 10 9 10 10 10 10 10
2 1 1 2 3 4 5 6 8 9 10 12 13 13 14 14 13 13 12 12 12 11 10 8 7 5 4 3 2 3 4 5 6 6 7 8 9 9 9 9 10 10 9
3 2 2 2 3 4 5 7 8 9 11 12 13 14 14 14 14 14 13 13 12 12 11 9 8 6 4 3 2 1 2 3 5 5 6 7 8 8 8 9 10 10 10
4 3 3 3 3 4 6 7 8 9 11 12 13 14 14 15 15 14 14 14 13 13 12 11 9 7 6 5 3 2 1 2 3 4 5 5 6 7 7 8 8 9 9
4 4 3 3 3 5 6 7 8 9 10 12 13 14 14 15 15 15 15 15 15 15 14 12 11 9 8 7 5 4 3 3 3 4 4 4 4 5 6 7 7 7 8
5 4 3 3 4 5 6 7 8 9 10 12 13 13 14 15 15 15 15 15 16 16 15 14 13 11 10 9 8 7 6 5 4 4 3 3 3 4 5 6 6 6 6
6 5 4 4 4 5 6 7 8 9 10 11 12 13 14 15 15 15 15 15 15 16 15 15 14 13 12 11 10 9 8 7 6 4 3 3 3 4 4 3 4 5 4
7 6 5 4 4 4 5 6 7 8 9 10 11 13 14 15 15 15 16 16 15 15 15 15 14 13 13 12 12 11 9 8 7 6 5 4 4 3 3 2 2 3 3
8 7 6 5 4 4 4 5 7 8 9 10 11 12 13 14 15 15 16 16 15 15 15 15 14 14 13 13 12 12 10 9 8 7 6 5 4 3 2 1 1 2 3
8 8 7 6 4 4 4 4 6 7 8 9 10 11 12 13 14 15 16 16 16 15 15 14 15 14 14 13 13 12 11 10 9 8 7 6 6 5 3 2 1 1 1
9 8 7 6 5 4 3 3 4 6 7 8 9 10 12 13 14 15 16 16 16 15 15 14 14 14 13 13 12 12 11 10 10 9 8 7 6 6 4 3 2 1 1
10 9 8 7 6 4 3 2 3 5 6 7 8 9 11 12 13 14 15 16 16 16 15 15 14 13 13 12 12 11 11 10 10 9 8 7 7 6 5 4 3 2 2
Wind_Direction
297 322 329 337 346 351 352 353 352 354 353 349 349 351 350 345 340 335 327 316 312 302 290 280 274 269 264 262 260 253 244 239 235 233 230 229 227 228 228 224 220 219 219
302 311 317 334 341 340 342 346 350 351 350 347 346 345 345 344 340 335 332 320 318 314 305 289 279 274 267 261 260 255 250 244 238 234 232 229 227 228 227 225 222 220 221
296 300 306 326 336 336 341 345 348 347 345 346 345 343 342 340 335 334 329 324 320 314 309 299 288 280 274 265 260 256 253 246 241 237 234 231 228 228 227 225 224 224 224
288 299 309 325 335 339 345 345 344 343 343 343 342 342 341 338 335 332 327 323 322 316 309 302 297 286 279 269 262 257 252 248 245 240 236 233 230 230 229 226 226 229 227
279 302 321 328 335 343 347 347 344 344 344 343 341 341 339 336 334 331 329 324 321 314 307 302 296 288 280 269 261 257 252 251 246 243 239 236 232 231 230 227 228 230 228
282 310 323 329 345 349 347 347 347 346 346 346 346 344 341 340 337 332 328 325 322 315 306 300 294 286 277 267 261 258 253 250 247 243 240 239 236 232 230 228 228 229 227
277 303 325 339 348 347 347 348 350 353 352 350 350 348 345 343 340 335 331 327 324 317 308 299 294 285 278 267 259 256 252 250 249 243 240 239 238 235 229 229 228 227 225
269 294 325 340 344 347 352 356 359 357 355 354 353 349 345 343 341 337 332 327 321 315 310 303 295 285 278 269 262 255 250 249 247 243 240 239 237 235 229 226 227 227 224
266 293 318 334 345 352 358 2 2 360 359 357 354 351 347 344 343 340 336 331 325 318 311 304 293 283 278 270 263 255 250 248 246 242 239 238 235 234 228 226 228 227 223
270 301 321 344 358 2 4 6 7 6 3 359 357 355 351 348 346 342 338 335 330 325 316 307 297 285 276 269 262 255 249 246 245 241 237 236 236 233 228 226 228 227 224
271 304 342 3 11 12 10 9 10 8 6 3 0 358 354 351 345 342 339 335 329 325 318 308 301 291 277 269 263 258 251 244 242 239 235 234 234 232 229 227 229 229 227
265 305 2 22 20 18 16 16 13 9 5 3 1 358 355 353 351 349 346 340 334 328 320 313 305 296 280 271 266 259 253 245 242 239 234 231 232 231 228 228 230 228 228
274 335 26 34 25 21 19 18 14 9 7 6 3 0 358 358 357 355 352 348 343 336 328 321 314 301 285 275 267 258 253 247 240 238 233 231 231 230 228 229 231 227 227
223 73 51 40 27 22 21 19 14 11 9 7 5 4 2 2 1 359 357 354 350 345 339 334 326 312 296 285 271 258 251 246 237 232 231 229 229 229 229 231 231 227 228
188 112 66 40 35 25 21 16 16 15 12 11 9 6 5 5 4 2 1 1 358 353 347 341 337 329 321 299 271 255 251 242 233 228 227 226 226 227 229 233 228 228 229
184 159 98 64 51 35 26 22 24 19 14 13 11 10 11 12 10 7 5 6 5 3 360 357 352 346 341 326 290 260 248 232 223 220 221 221 223 226 229 230 224 225 226
185 156 120 85 63 46 35 31 29 23 18 16 15 16 17 17 15 14 14 14 12 12 11 11 11 10 4 356 345 298 239 218 212 209 212 218 222 226 227 227 225 224 226
174 152 128 101 72 51 43 37 32 26 22 21 21 21 22 21 21 22 23 22 21 21 21 23 26 31 33 30 36 56 130 172 186 192 199 208 217 224 225 222 223 225 228
171 154 133 107 76 56 48 39 34 29 27 26 25 26 26 25 25 26 27 27 27 28 28 31 35 40 43 47 55 64 89 121 145 165 181 193 205 212 212 214 220 226 225
171 160 142 113 85 65 51 41 37 34 32 29 30 30 30 29 28 28 29 30 30 31 34 38 44 48 50 54 60 64 74 90 111 136 156 172 184 195 199 205 215 222 223
177 169 151 126 94 71 55 45 42 39 36 34 34 35 34 32 32 31 32 32 33 36 40 44 49 53 54 55 58 64 73 83 92 106 115 132 149 163 175 188 204 215 224
178 170 159 141 110 82 63 52 47 44 40 38 38 37 36 34 34 34 34 35 38 39 42 46 50 53 55 56 60 64 69 74 82 85 88 102 111 119 138 162 195 208 224
180 174 167 149 123 96 76 61 52 46 44 42 40 38 37 36 36 37 37 38 39 40 44 46 48 52 55 57 60 63 66 71 75 76 79 83 88 94 111 140 165 199 226
181 178 170 159 143 119 93 69 56 48 45 44 42 40 38 37 37 38 38 39 40 42 43 45 48 51 54 56 58 60 63 66 70 71 72 75 76 72 70 75 74 177 222
183 179 175 169 159 140 114 84 61 51 48 45 42 41 40 39 38 39 39 40 41 41 42 43 45 49 51 53 55 57 59 61 62 65 66 67 65 59 56 50 33 10 300
187 183 180 177 172 161 144 114 71 55 51 46 44 42 41 40 38 38 39 40 40 41 42 42 43 47 50 52 53 53 54 55 55 56 56 57 53 49 48 42 33 10 339
Height
5889 5889 5889 5888 5888 5888 5887 5887 5886 5885 5884 5884 5883 5882 5881 5880 5880 5879 5878 5877 5877 5876 5876 5875 5875 5875 5875 5875 5875 5875 5875 5876 5877 5877 5879 5880 5881 5882 5883 5884 5885 5886 5887
5889 5889 5888 5888 5888 5888 5887 5886 5886 5885 5884 5883 5882 5881 5880 5880 5879 5878 5877 5876 5876 5875 5874 5874 5874 5874 5874 5874 5874 5874 5874 5874 5875 5876 5877 5878 5879 5880 5881 5882 5884 5885 5886
5889 5888 5888 5888 5888 5887 5887 5886 5885 5885 5884 5882 5881 5881 5880 5879 5878 5877 5876 5875 5874 5874 5873 5873 5872 5872 5872 5872 5872 5872 5872 5873 5874 5875 5875 5876 5877 5879 5880 5881 5883 5884 5885
5888 5888 5888 5888 5888 5887 5886 5886 5885 5884 5883 5882 5881 5880 5879 5878 5877 5876 5875 5874 5873 5872 5872 5871 5871 5871 5870 5870 5871 5871 5871 5871 5872 5873 5874 5875 5876 5877 5878 5880 5881 5883 5884
5888 5888 5888 5888 5887 5887 5886 5885 5885 5883 5882 5881 5880 5879 5878 5877 5876 5875 5874 5873 5872 5871 5870 5870 5869 5869 5869 5869 5869 5869 5869 5870 5871 5871 5872 5873 5874 5876 5877 5879 5880 5881 5883
5888 5888 5888 5887 5887 5887 5886 5885 5884 5883 5881 5880 5879 5878 5877 5876 5874 5873 5872 5871 5870 5869 5869 5868 5868 5867 5867 5867 5867 5868 5868 5868 5869 5870 5871 5872 5873 5874 5875 5877 5879 5880 5881
5888 5888 5887 5887 5887 5886 5885 5884 5883 5882 5881 5880 5878 5877 5876 5874 5873 5872 5871 5869 5868 5867 5867 5866 5866 5865 5865 5865 5865 5866 5866 5867 5868 5869 5869 5870 5871 5873 5874 5876 5877 5879 5880
5887 5887 5887 5887 5886 5886 5885 5884 5883 5882 5880 5879 5878 5876 5875 5873 5872 5871 5869 5868 5867 5866 5865 5864 5864 5863 5863 5863 5863 5864 5864 5865 5866 5867 5868 5869 5870 5871 5872 5874 5876 5877 5879
5887 5887 5887 5887 5886 5885 5884 5883 5882 5881 5880 5879 5877 5876 5874 5872 5871 5869 5868 5866 5865 5863 5863 5862 5861 5861 5861 5861 5861 5861 5862 5863 5864 5865 5866 5867 5868 5869 5871 5872 5874 5876 5878
5887 5887 5887 5886 5886 5885 5884 5883 5882 5881 5880 5878 5876 5875 5873 5871 5869 5868 5866 5864 5863 5862 5861 5860 5859 5859 5859 5859 5859 5859 5860 5861 5862 5863 5865 5866 5867 5868 5869 5871 5873 5875 5876
5887 5887 5887 5886 5885 5885 5884 5883 5882 5881 5879 5878 5876 5874 5872 5870 5868 5866 5865 5863 5861 5860 5858 5858 5857 5856 5856 5856 5856 5857 5857 5858 5860 5861 5863 5864 5865 5866 5868 5870 5872 5873 5875
5886 5887 5886 5886 5885 5884 5884 5883 5882 5881 5879 5878 5876 5874 5872 5869 5867 5865 5863 5861 5859 5858 5856 5855 5855 5854 5854 5854 5854 5855 5855 5856 5858 5859 5861 5862 5864 5865 5867 5868 5870 5872 5874
5886 5886 5886 5885 5885 5884 5884 5883 5882 5881 5879 5877 5876 5873 5871 5869 5867 5864 5862 5860 5858 5856 5855 5853 5853 5852 5852 5852 5852 5852 5853 5854 5856 5857 5859 5860 5862 5864 5865 5867 5869 5871 5872
5886 5886 5886 5885 5885 5884 5884 5883 5882 5880 5879 5877 5875 5873 5871 5868 5866 5864 5862 5859 5857 5855 5853 5852 5851 5851 5850 5850 5850 5851 5851 5852 5854 5855 5857 5859 5860 5862 5864 5866 5867 5869 5871
5885 5885 5885 5885 5885 5884 5884 5883 5882 5880 5879 5877 5875 5873 5871 5868 5866 5863 5861 5859 5856 5854 5852 5851 5850 5849 5849 5848 5848 5849 5849 5850 5852 5853 5855 5857 5859 5861 5863 5865 5866 5868 5870
5885 5885 5885 5885 5885 5885 5884 5883 5882 5881 5879 5878 5876 5873 5871 5868 5866 5863 5861 5858 5856 5854 5852 5850 5849 5848 5848 5847 5847 5848 5848 5849 5850 5852 5854 5856 5858 5860 5862 5863 5865 5868 5869
5885 5885 5885 5885 5885 5885 5884 5884 5882 5881 5880 5878 5876 5874 5871 5869 5866 5863 5861 5859 5856 5854 5851 5850 5848 5847 5847 5846 5846 5847 5847 5848 5849 5851 5853 5855 5857 5859 5861 5863 5864 5867 5868
5885 5885 5886 5886 5886 5885 5885 5884 5883 5882 5880 5879 5877 5874 5872 5870 5867 5864 5862 5859 5857 5854 5852 5850 5849 5848 5847 5846 5846 5846 5847 5848 5849 5851 5853 5855 5856 5858 5860 5862 5864 5866 5868
5885 5885 5886 5886 5886 5886 5885 5885 5884 5883 5881 5880 5878 5875 5873 5871 5868 5865 5863 5861 5858 5856 5853 5852 5850 5849 5848 5847 5847 5847 5847 5848 5849 5851 5853 5854 5856 5858 5859 5861 5863 5865 5867
5885 5885 5886 5886 5886 5886 5886 5885 5885 5884 5882 5881 5879 5877 5874 5872 5870 5867 5865 5862 5860 5857 5855 5853 5851 5850 5849 5849 5848 5848 5848 5849 5850 5852 5853 5854 5856 5858 5859 5861 5863 5865 5866
5884 5885 5886 5886 5886 5887 5887 5886 5886 5885 5883 5882 5880 5878 5876 5874 5871 5869 5867 5864 5862 5859 5857 5855 5854 5853 5852 5851 5850 5850 5850 5850 5851 5852 5854 5855 5857 5858 5859 5861 5863 5864 5866
5884 5885 5886 5887 5887 5887 5887 5887 5887 5886 5885 5883 5882 5880 5878 5876 5874 5871 5869 5866 5864 5862 5860 5858 5857 5855 5854 5853 5853 5852 5852 5853 5853 5854 5855 5856 5857 5858 5860 5861 5863 5864 5866
5884 5885 5886 5887 5887 5888 5888 5888 5888 5887 5886 5885 5883 5882 5880 5878 5876 5873 5871 5869 5866 5864 5863 5861 5859 5858 5857 5856 5856 5855 5855 5855 5855 5856 5857 5857 5858 5859 5861 5862 5863 5864 5866
5883 5885 5886 5887 5888 5888 5889 5889 5889 5888 5887 5886 5885 5884 5882 5880 5878 5876 5873 5871 5869 5867 5865 5864 5862 5861 5860 5859 5858 5858 5858 5857 5858 5858 5859 5859 5860 5860 5861 5862 5863 5864 5866
5883 5884 5886 5887 5888 5889 5889 5890 5889 5889 5888 5887 5886 5885 5884 5882 5880 5878 5876 5873 5871 5870 5868 5866 5865 5863 5862 5861 5861 5861 5860 5860 5860 5860 5861 5861 5861 5861 5862 5863 5864 5864 5866
5882 5884 5885 5887 5888 5889 5889 5890 5890 5890 5889 5889 5888 5887 5885 5884 5882 5880 5878 5876 5874 5872 5870 5869 5867 5866 5865 5864 5864 5863 5863 5863 5862 5862 5863 5862 5862 5863 5863 5863 5864 5864 5865